Terug naar catalogus

KUIPER-00130

ActiefCommunicatieLEO
NORAD 65959·PAYLOAD·🇺🇸 United States

Gelanceerd Oct 14, 2025 vanaf Cape Canaveral Space Force Station

Loading…

Volgende Passages (komende 24 uur)

TLE

VersSource: CelesTrak SupGP

Epoch: Sep 14, 2026, 17:09 UTC

1 65959C 25228N   26257.71482639  .00001608  00000+0  21058-3 0  2575
2 65959  51.9012 234.7875 0000715  74.0125 247.0413 14.79914154    19

Volg KUIPER-00130 in realtime met AllMySat

Download on the App Store